Location: Pagani
(40.7500°N, 14.6167°E)
Time: 07:42:16
(UTC+00:00)

Cosmos 2360 Rocket - Pass Details

Date: 15 May 2026
Orbit: 831 x 845 km, 71.0° (Epoch: 5 June)

Event Time Altitude Azimuth Distance (km) Brightness Sun altitude
Rises 20:03:53 0° 343° (NNW) 3,413 6.5 -17.9°
Reaches altitude 10° 20:06:31 10° 351° (N) 2,474 5.5 -18.2°
Maximum altitude 20:11:47 38° 59° (ENE) 1,270 3.0 -18.9°
Enters shadow 20:13:58 28° 103° (ESE) 1,543 3.1 -19.1°
